Time,TemperatureF,DewpointF,PressureIn,WindDirection,WindDirectionDegrees,WindSpeedMPH,WindSpeedGustMPH,Humidity,HourlyPrecipIn,Conditions,Clouds,dailyrainin,SoftwareType,DateUTC
2013-06-11 00:04:00,63.9,57.7,29.83,SSW,203,0.0,0.0,80,0.00,,,0.00,WSDL version 430,2013-06-11 05:04:00,
2013-06-11 00:09:00,63.8,57.8,29.83,SSW,203,0.0,0.0,81,0.00,,,0.00,WSDL version 430,2013-06-11 05:09:00,
2013-06-11 00:14:00,63.8,57.8,29.83,SSW,203,0.0,0.0,81,0.00,,,0.00,WSDL version 430,2013-06-11 05:14:00,
2013-06-11 00:19:00,63.7,57.7,29.84,SSW,203,0.0,0.0,81,0.00,,,0.00,WSDL version 430,2013-06-11 05:19:00,
2013-06-11 00:24:00,63.7,57.7,29.84,SSW,203,0.0,0.0,81,0.00,,,0.00,WSDL version 430,2013-06-11 05:24:00,
2013-06-11 00:29:00,63.5,57.6,29.84,SSW,203,0.0,0.0,81,0.00,,,0.00,WSDL version 430,2013-06-11 05:29:00,
2013-06-11 00:34:00,63.4,57.6,29.84,SSW,203,0.0,0.0,82,0.00,,,0.00,WSDL version 430,2013-06-11 05:34:00,
2013-06-11 00:39:00,63.3,57.4,29.84,SSW,203,0.0,0.0,81,0.00,,,0.00,WSDL version 430,2013-06-11 05:39:00,
2013-06-11 00:44:00,63.3,57.4,29.84,SSW,203,0.0,0.0,81,0.00,,,0.00,WSDL version 430,2013-06-11 05:44:00,
2013-06-11 00:49:00,63.1,57.6,29.84,South,180,0.0,0.0,82,0.00,,,0.00,WSDL version 430,2013-06-11 05:49:00,
2013-06-11 00:54:00,63.1,57.6,29.84,South,180,0.0,0.0,82,0.00,,,0.00,WSDL version 430,2013-06-11 05:54:00,
2013-06-11 00:59:00,63.1,57.6,29.84,South,180,0.0,0.0,82,0.00,,,0.00,WSDL version 430,2013-06-11 05:59:00,
2013-06-11 01:04:00,63.0,57.7,29.84,South,180,0.0,0.0,83,0.00,,,0.00,WSDL version 430,2013-06-11 06:04:00,
2013-06-11 01:09:00,62.9,57.6,29.84,South,180,0.0,0.0,83,0.00,,,0.00,WSDL version 430,2013-06-11 06:09:00,
2013-06-11 01:14:00,62.8,57.5,29.84,South,180,0.0,0.0,83,0.00,,,0.00,WSDL version 430,2013-06-11 06:14:00,
2013-06-11 01:19:00,62.7,57.5,29.84,South,180,0.0,0.0,83,0.00,,,0.00,WSDL version 430,2013-06-11 06:19:00,
2013-06-11 01:24:00,62.6,57.6,29.84,South,180,0.0,0.0,84,0.00,,,0.00,WSDL version 430,2013-06-11 06:24:00,
2013-06-11 01:29:00,62.6,57.7,29.84,South,180,0.0,0.0,84,0.00,,,0.00,WSDL version 430,2013-06-11 06:29:00,
2013-06-11 01:34:00,62.6,57.7,29.85,South,177,0.0,0.0,84,0.00,,,0.00,WSDL version 430,2013-06-11 06:34:00,
2013-06-11 01:39:00,62.4,57.7,29.85,SSE,160,0.0,1.3,85,0.00,,,0.00,WSDL version 430,2013-06-11 06:39:00,
2013-06-11 01:44:00,62.2,57.7,29.85,South,178,0.0,1.3,85,0.00,,,0.00,WSDL version 430,2013-06-11 06:44:00,
2013-06-11 01:49:00,62.2,57.6,29.85,South,180,0.0,0.0,85,0.00,,,0.00,WSDL version 430,2013-06-11 06:49:00,
2013-06-11 01:54:00,62.1,57.5,29.85,South,180,0.0,0.0,85,0.00,,,0.00,WSDL version 430,2013-06-11 06:54:00,
2013-06-11 01:59:00,62.2,57.7,29.85,South,180,0.0,0.0,85,0.00,,,0.00,WSDL version 430,2013-06-11 06:59:00,
2013-06-11 02:04:00,62.1,57.5,29.86,South,180,0.0,0.0,85,0.00,,,0.00,WSDL version 430,2013-06-11 07:04:00,
2013-06-11 02:09:00,61.9,57.7,29.86,SSW,197,0.0,0.0,86,0.00,,,0.00,WSDL version 430,2013-06-11 07:09:00,
2013-06-11 02:14:00,61.9,57.7,29.86,SW,225,0.1,1.3,86,0.00,,,0.00,WSDL version 430,2013-06-11 07:14:00,
2013-06-11 02:19:00,62.1,57.8,29.86,SSW,203,0.0,1.6,86,0.00,,,0.00,WSDL version 430,2013-06-11 07:19:00,
2013-06-11 02:24:00,62.1,57.8,29.87,WSW,248,0.0,1.6,86,0.00,,,0.00,WSDL version 430,2013-06-11 07:24:00,
2013-06-11 02:29:00,62.1,58.0,29.87,WNW,283,0.0,0.0,87,0.00,,,0.00,WSDL version 430,2013-06-11 07:29:00,
2013-06-11 02:34:00,62.1,57.8,29.87,SSW,203,0.0,1.1,86,0.00,,,0.00,WSDL version 430,2013-06-11 07:34:00,
2013-06-11 02:39:00,62.1,57.8,29.87,SW,220,0.0,1.1,86,0.00,,,0.00,WSDL version 430,2013-06-11 07:39:00,
2013-06-11 02:44:00,62.2,58.1,29.87,SSW,203,0.0,0.0,87,0.00,,,0.00,WSDL version 430,2013-06-11 07:44:00,
2013-06-11 02:49:00,62.2,58.3,29.87,SSW,203,0.0,0.0,87,0.00,,,0.00,WSDL version 430,2013-06-11 07:49:00,
2013-06-11 02:54:00,62.1,58.1,29.87,SSW,203,0.0,0.0,87,0.00,,,0.00,WSDL version 430,2013-06-11 07:54:00,
2013-06-11 02:59:00,62.1,58.1,29.86,SSW,203,0.0,0.0,87,0.00,,,0.00,WSDL version 430,2013-06-11 07:59:00,
2013-06-11 03:04:00,61.9,57.8,29.86,SSW,203,0.0,0.0,86,0.00,,,0.00,WSDL version 430,2013-06-11 08:04:00,
2013-06-11 03:09:00,61.9,57.7,29.86,South,186,0.0,0.0,86,0.00,,,0.00,WSDL version 430,2013-06-11 08:09:00,
2013-06-11 03:14:00,61.8,57.8,29.86,SSE,158,0.6,1.3,87,0.00,,,0.00,WSDL version 430,2013-06-11 08:14:00,
2013-06-11 03:19:00,61.7,57.8,29.86,SSE,158,0.0,1.3,87,0.00,,,0.00,WSDL version 430,2013-06-11 08:19:00,
2013-06-11 03:24:00,61.5,57.6,29.87,SSE,158,0.0,0.0,87,0.00,,,0.00,WSDL version 430,2013-06-11 08:24:00,
2013-06-11 03:29:00,61.5,57.6,29.87,SSE,158,0.0,0.0,87,0.00,,,0.00,WSDL version 430,2013-06-11 08:29:00,
2013-06-11 03:34:00,61.5,57.6,29.87,SSE,158,0.0,0.0,87,0.00,,,0.00,WSDL version 430,2013-06-11 08:34:00,
2013-06-11 03:39:00,61.3,57.4,29.87,SSE,158,0.0,0.0,87,0.00,,,0.00,WSDL version 430,2013-06-11 08:39:00,
2013-06-11 03:44:00,61.3,57.4,29.88,SSW,203,0.0,0.0,87,0.00,,,0.00,WSDL version 430,2013-06-11 08:44:00,
2013-06-11 03:49:00,61.2,57.3,29.88,SSW,203,0.0,0.0,87,0.00,,,0.00,WSDL version 430,2013-06-11 08:49:00,
2013-06-11 03:54:00,61.2,57.3,29.87,SSE,165,0.0,0.0,87,0.00,,,0.00,WSDL version 430,2013-06-11 08:54:00,
2013-06-11 03:59:00,61.2,57.6,29.86,SSE,158,0.0,0.0,88,0.00,,,0.00,WSDL version 430,2013-06-11 08:59:00,
2013-06-11 04:04:00,61.2,57.6,29.86,SSE,158,0.4,1.6,88,0.00,,,0.00,WSDL version 430,2013-06-11 09:04:00,
2013-06-11 04:10:00,61.0,57.4,29.86,South,180,0.0,1.6,88,0.00,,,0.00,WSDL version 430,2013-06-11 09:10:00,
2013-06-11 04:15:00,61.0,57.4,29.85,South,180,0.0,0.0,88,0.00,,,0.00,WSDL version 430,2013-06-11 09:15:00,
2013-06-11 04:20:00,60.8,57.2,29.86,South,180,0.0,0.0,88,0.00,,,0.00,WSDL version 430,2013-06-11 09:20:00,
2013-06-11 04:25:00,60.8,57.2,29.86,South,180,0.0,0.0,88,0.00,,,0.00,WSDL version 430,2013-06-11 09:25:00,
2013-06-11 04:30:00,60.8,57.2,29.86,South,180,0.0,0.0,88,0.00,,,0.00,WSDL version 430,2013-06-11 09:30:00,
2013-06-11 04:35:00,60.8,57.2,29.86,South,180,0.0,0.0,88,0.00,,,0.00,WSDL version 430,2013-06-11 09:35:00,
2013-06-11 04:40:00,60.7,57.3,29.86,South,180,0.0,0.0,89,0.00,,,0.00,WSDL version 430,2013-06-11 09:40:00,
2013-06-11 04:45:00,60.6,57.4,29.86,South,180,0.0,0.0,89,0.00,,,0.00,WSDL version 430,2013-06-11 09:45:00,
2013-06-11 04:50:00,60.5,57.3,29.86,South,180,0.0,0.0,89,0.00,,,0.00,WSDL version 430,2013-06-11 09:50:00,
2013-06-11 04:55:00,60.4,57.2,29.86,South,180,0.0,0.0,89,0.00,,,0.00,WSDL version 430,2013-06-11 09:55:00,
2013-06-11 05:00:00,60.4,57.2,29.87,SSW,193,0.0,0.9,89,0.00,,,0.00,WSDL version 430,2013-06-11 10:00:00,
2013-06-11 05:05:00,60.6,57.4,29.87,SSW,203,0.0,0.9,89,0.00,,,0.00,WSDL version 430,2013-06-11 10:05:00,
2013-06-11 05:10:00,60.6,57.4,29.87,SSW,203,0.0,0.9,89,0.00,,,0.00,WSDL version 430,2013-06-11 10:10:00,
2013-06-11 05:17:00,60.6,57.7,29.86,SSW,198,0.8,2.2,90,0.00,,,0.00,WSDL version 430,2013-06-11 10:17:00,
2013-06-11 05:22:00,60.6,58.0,29.86,South,188,0.7,2.2,91,0.00,,,0.00,WSDL version 430,2013-06-11 10:22:00,
2013-06-11 05:27:00,60.6,58.0,29.86,SSW,203,0.0,2.0,91,0.00,,,0.00,WSDL version 430,2013-06-11 10:27:00,
2013-06-11 05:32:00,60.6,58.0,29.87,SSW,203,0.0,0.0,91,0.00,,,0.00,WSDL version 430,2013-06-11 10:32:00,
2013-06-11 05:37:00,60.6,58.0,29.87,SSW,203,0.0,0.0,91,0.00,,,0.00,WSDL version 430,2013-06-11 10:37:00,
2013-06-11 05:43:00,60.6,58.0,29.87,SSW,203,0.0,0.0,91,0.00,,,0.00,WSDL version 430,2013-06-11 10:43:00,
2013-06-11 05:48:00,60.6,58.0,29.87,SSW,203,0.0,0.0,91,0.00,,,0.00,WSDL version 430,2013-06-11 10:48:00,
2013-06-11 05:54:00,60.8,57.9,29.88,SSW,203,0.0,0.0,90,0.00,,,0.00,WSDL version 430,2013-06-11 10:54:00,
2013-06-11 05:59:00,61.0,58.3,29.88,SSW,203,0.0,0.0,91,0.00,,,0.00,WSDL version 430,2013-06-11 10:59:00,
2013-06-11 06:04:00,61.0,58.3,29.88,SSW,203,0.0,0.0,91,0.00,,,0.00,WSDL version 430,2013-06-11 11:04:00,
2013-06-11 06:15:00,61.7,59.0,29.88,South,185,0.0,0.0,91,0.00,,,0.00,WSDL version 430,2013-06-11 11:15:00,
2013-06-11 06:20:00,61.7,59.0,29.87,SSE,163,1.2,2.0,91,0.00,,,0.00,WSDL version 430,2013-06-11 11:20:00,
2013-06-11 06:38:00,63.7,61.3,29.87,SE,135,0.0,0.0,92,0.00,,,0.00,WSDL version 430,2013-06-11 11:38:00,
2013-06-11 06:43:00,63.9,61.5,29.87,SSE,158,0.0,0.0,92,0.00,,,0.00,WSDL version 430,2013-06-11 11:43:00,
2013-06-11 06:48:00,64.3,62.0,29.87,SSE,158,0.0,0.0,92,0.00,,,0.00,WSDL version 430,2013-06-11 11:48:00,
2013-06-11 06:53:00,64.9,62.6,29.86,SE,132,0.0,0.0,92,0.00,,,0.00,WSDL version 430,2013-06-11 11:53:00,
2013-06-11 06:58:00,65.8,63.5,29.86,SE,138,0.0,2.5,92,0.00,,,0.00,WSDL version 430,2013-06-11 11:58:00,
2013-06-11 07:03:00,66.5,64.1,29.85,East,100,0.0,2.5,92,0.00,,,0.00,WSDL version 430,2013-06-11 12:03:00,
2013-06-11 07:08:00,67.1,64.4,29.84,ENE,63,0.0,0.0,91,0.00,,,0.00,WSDL version 430,2013-06-11 12:08:00,
2013-06-11 07:13:00,68.4,65.3,29.84,ENE,68,0.6,2.0,90,0.00,,,0.00,WSDL version 430,2013-06-11 12:13:00,
2013-06-11 07:18:00,68.5,65.2,29.84,ENE,68,0.0,2.2,88,0.00,,,0.00,WSDL version 430,2013-06-11 12:18:00,
2013-06-11 07:23:00,68.7,64.6,29.84,ENE,68,0.8,2.2,86,0.00,,,0.00,WSDL version 430,2013-06-11 12:23:00,
2013-06-11 07:28:00,68.9,64.5,29.84,ENE,68,0.6,2.0,86,0.00,,,0.00,WSDL version 430,2013-06-11 12:28:00,
2013-06-11 07:33:00,68.9,64.2,29.84,ENE,68,0.3,2.9,85,0.00,,,0.00,WSDL version 430,2013-06-11 12:33:00,
2013-06-11 07:38:00,69.2,64.5,29.85,SSE,158,0.6,2.9,85,0.00,,,0.00,WSDL version 430,2013-06-11 12:38:00,
2013-06-11 07:43:00,69.4,64.4,29.84,ENE,59,0.3,2.7,84,0.00,,,0.00,WSDL version 430,2013-06-11 12:43:00,
2013-06-11 07:48:00,69.7,64.6,29.85,SSW,194,0.4,2.0,83,0.00,,,0.00,WSDL version 430,2013-06-11 12:48:00,
2013-06-11 07:53:00,70.1,64.7,29.85,NE,56,0.0,2.0,83,0.00,,,0.00,WSDL version 430,2013-06-11 12:53:00,
2013-06-11 07:58:00,70.3,64.9,29.85,SSE,160,2.1,3.6,83,0.00,,,0.00,WSDL version 430,2013-06-11 12:58:00,
2013-06-11 08:03:00,70.7,64.9,29.85,SSE,158,2.0,4.3,82,0.00,,,0.00,WSDL version 430,2013-06-11 13:03:00,
2013-06-11 08:08:00,71.1,64.9,29.85,SSE,164,2.4,4.3,81,0.00,,,0.00,WSDL version 430,2013-06-11 13:08:00,
2013-06-11 08:13:00,71.1,64.8,29.85,South,191,1.2,3.6,80,0.00,,,0.00,WSDL version 430,2013-06-11 13:13:00,
2013-06-11 08:18:00,71.1,64.6,29.86,NNW,338,0.0,3.1,80,0.00,,,0.00,WSDL version 430,2013-06-11 13:18:00,
2013-06-11 08:23:00,71.1,64.2,29.86,South,175,1.1,3.8,79,0.00,,,0.00,WSDL version 430,2013-06-11 13:23:00,
2013-06-11 08:28:00,71.3,64.8,29.86,SSW,208,2.1,3.8,80,0.00,,,0.00,WSDL version 430,2013-06-11 13:28:00,
2013-06-11 08:33:00,72.0,65.2,29.86,SSE,163,3.4,5.6,79,0.00,,,0.00,WSDL version 430,2013-06-11 13:33:00,
2013-06-11 08:38:00,72.5,65.8,29.86,SW,225,2.6,5.6,79,0.00,,,0.00,WSDL version 430,2013-06-11 13:38:00,
2013-06-11 08:43:00,72.8,65.6,29.86,SSW,200,3.2,5.6,78,0.00,,,0.00,WSDL version 430,2013-06-11 13:43:00,
2013-06-11 08:48:00,73.2,65.9,29.86,South,184,4.5,6.5,77,0.00,,,0.00,WSDL version 430,2013-06-11 13:48:00,
2013-06-11 08:53:00,73.4,65.4,29.86,SSW,203,5.1,7.8,75,0.00,,,0.00,WSDL version 430,2013-06-11 13:53:00,
2013-06-11 08:58:00,73.3,64.9,29.86,SSW,206,5.9,10.1,75,0.00,,,0.00,WSDL version 430,2013-06-11 13:58:00,
2013-06-11 09:03:00,72.9,63.8,29.86,South,183,6.1,10.1,73,0.00,,,0.00,WSDL version 430,2013-06-11 14:03:00,
2013-06-11 09:08:00,72.8,63.9,29.87,South,169,5.6,9.2,74,0.00,,,0.00,WSDL version 430,2013-06-11 14:08:00,
2013-06-11 09:13:00,73.1,64.5,29.87,SSW,200,4.2,7.6,75,0.00,,,0.00,WSDL version 430,2013-06-11 14:13:00,
2013-06-11 09:18:00,73.2,64.8,29.86,SSW,195,5.6,8.7,75,0.00,,,0.00,WSDL version 430,2013-06-11 14:18:00,
2013-06-11 09:23:00,73.4,64.7,29.86,South,183,6.4,8.7,74,0.00,,,0.00,WSDL version 430,2013-06-11 14:23:00,
2013-06-11 09:28:00,73.3,64.4,29.86,South,190,5.8,9.8,73,0.00,,,0.00,WSDL version 430,2013-06-11 14:28:00,
2013-06-11 09:33:00,73.3,64.3,29.86,SSW,197,4.3,9.8,74,0.00,,,0.00,WSDL version 430,2013-06-11 14:33:00,
2013-06-11 09:38:00,73.5,64.7,29.86,South,186,4.3,7.8,74,0.00,,,0.00,WSDL version 430,2013-06-11 14:38:00,
2013-06-11 09:43:00,73.8,65.0,29.86,South,188,5.0,7.8,74,0.00,,,0.00,WSDL version 430,2013-06-11 14:43:00,
2013-06-11 09:48:00,73.7,64.8,29.86,South,176,5.6,10.1,74,0.00,,,0.00,WSDL version 430,2013-06-11 14:48:00,
2013-06-11 09:53:00,73.6,64.4,29.86,SSW,193,6.3,10.1,73,0.00,,,0.00,WSDL version 430,2013-06-11 14:53:00,
2013-06-11 09:58:00,73.6,64.5,29.86,South,188,5.5,9.4,74,0.00,,,0.00,WSDL version 430,2013-06-11 14:58:00,
2013-06-11 10:03:00,74.0,65.5,29.85,South,180,5.3,9.4,75,0.00,,,0.00,WSDL version 430,2013-06-11 15:03:00,
2013-06-11 10:08:00,74.7,66.3,29.85,South,184,5.7,8.7,75,0.00,,,0.00,WSDL version 430,2013-06-11 15:08:00,
2013-06-11 10:13:00,75.2,66.6,29.84,South,188,4.3,8.7,75,0.00,,,0.00,WSDL version 430,2013-06-11 15:13:00,
2013-06-11 10:18:00,75.5,66.7,29.85,South,170,4.6,7.4,74,0.00,,,0.00,WSDL version 430,2013-06-11 15:18:00,
2013-06-11 10:23:00,76.0,67.1,29.85,SSE,163,4.8,7.6,74,0.00,,,0.00,WSDL version 430,2013-06-11 15:23:00,
2013-06-11 10:28:00,76.3,67.0,29.84,SSW,203,3.9,7.8,73,0.00,,,0.00,WSDL version 430,2013-06-11 15:28:00,
2013-06-11 10:33:00,76.4,67.1,29.84,South,177,4.0,7.8,73,0.00,,,0.00,WSDL version 430,2013-06-11 15:33:00,
2013-06-11 10:38:00,76.9,67.0,29.84,SSE,160,5.2,7.4,71,0.00,,,0.00,WSDL version 430,2013-06-11 15:38:00,
2013-06-11 10:43:00,77.2,67.0,29.84,SSE,168,4.6,7.8,70,0.00,,,0.00,WSDL version 430,2013-06-11 15:43:00,
2013-06-11 10:48:00,77.2,66.3,29.84,SSE,154,2.3,7.8,69,0.00,,,0.00,WSDL version 430,2013-06-11 15:48:00,
2013-06-11 10:53:00,77.3,66.4,29.84,South,185,2.3,6.9,70,0.00,,,0.00,WSDL version 430,2013-06-11 15:53:00,
2013-06-11 10:58:00,77.6,66.7,29.84,SSE,161,3.7,7.2,69,0.00,,,0.00,WSDL version 430,2013-06-11 15:58:00,
2013-06-11 11:03:00,78.0,66.8,29.84,SSE,158,4.0,7.2,68,0.00,,,0.00,WSDL version 430,2013-06-11 16:03:00,
2013-06-11 11:08:00,78.4,66.8,29.83,South,180,3.0,6.3,68,0.00,,,0.00,WSDL version 430,2013-06-11 16:08:00,
2013-06-11 11:13:00,78.9,66.9,29.83,South,170,5.7,7.6,66,0.00,,,0.00,WSDL version 430,2013-06-11 16:13:00,
2013-06-11 11:18:00,79.2,66.8,29.83,South,191,5.3,7.6,66,0.00,,,0.00,WSDL version 430,2013-06-11 16:18:00,
2013-06-11 11:23:00,79.3,67.4,29.83,South,172,3.5,7.6,67,0.00,,,0.00,WSDL version 430,2013-06-11 16:23:00,
2013-06-11 11:28:00,80.1,67.8,29.83,South,169,5.5,9.4,65,0.00,,,0.00,WSDL version 430,2013-06-11 16:28:00,
2013-06-11 11:33:00,80.3,67.5,29.83,SSW,193,6.2,9.4,65,0.00,,,0.00,WSDL version 430,2013-06-11 16:33:00,
2013-06-11 11:38:00,80.4,66.7,29.82,SSW,197,6.0,10.1,63,0.00,,,0.00,WSDL version 430,2013-06-11 16:38:00,
2013-06-11 11:43:00,80.5,67.0,29.82,SSE,158,4.4,10.1,62,0.00,,,0.00,WSDL version 430,2013-06-11 16:43:00,
2013-06-11 11:48:00,80.8,66.4,29.82,SSE,164,2.3,7.6,61,0.00,,,0.00,WSDL version 430,2013-06-11 16:48:00,
2013-06-11 11:53:00,81.1,66.4,29.82,South,170,3.8,7.4,61,0.00,,,0.00,WSDL version 430,2013-06-11 16:53:00,
2013-06-11 11:58:00,81.3,65.7,29.81,SE,141,2.9,7.4,59,0.00,,,0.00,WSDL version 430,2013-06-11 16:58:00,
2013-06-11 12:03:00,81.4,65.7,29.81,South,190,4.9,8.5,59,0.00,,,0.00,WSDL version 430,2013-06-11 17:03:00,
2013-06-11 12:08:00,81.5,65.8,29.80,East,79,1.6,8.5,59,0.00,,,0.00,WSDL version 430,2013-06-11 17:08:00,
2013-06-11 12:13:00,81.3,64.7,29.80,ENE,60,2.1,7.6,57,0.00,,,0.00,WSDL version 430,2013-06-11 17:13:00,
2013-06-11 12:18:00,81.6,65.7,29.81,ENE,68,3.4,4.9,58,0.00,,,0.00,WSDL version 430,2013-06-11 17:18:00,
2013-06-11 12:23:00,81.5,65.6,29.81,ENE,68,2.3,4.9,59,0.00,,,0.00,WSDL version 430,2013-06-11 17:23:00,
2013-06-11 12:28:00,81.7,66.0,29.81,ENE,58,1.1,4.5,59,0.00,,,0.00,WSDL version 430,2013-06-11 17:28:00,
2013-06-11 12:33:00,82.1,66.5,29.81,WNW,286,1.9,7.4,59,0.00,,,0.00,WSDL version 430,2013-06-11 17:33:00,
2013-06-11 12:38:00,82.2,66.1,29.81,SSE,167,4.9,7.8,58,0.00,,,0.00,WSDL version 430,2013-06-11 17:38:00,
2013-06-11 12:43:00,82.3,65.3,29.81,North,360,2.5,7.8,56,0.00,,,0.00,WSDL version 430,2013-06-11 17:43:00,
2013-06-11 12:48:00,82.4,65.0,29.82,South,183,3.6,5.8,56,0.00,,,0.00,WSDL version 430,2013-06-11 17:48:00,
2013-06-11 12:53:00,82.3,65.1,29.83,South,186,5.2,7.8,57,0.00,,,0.00,WSDL version 430,2013-06-11 17:53:00,
2013-06-11 12:58:00,82.0,64.8,29.83,SSW,203,3.8,7.8,56,0.00,,,0.00,WSDL version 430,2013-06-11 17:58:00,
2013-06-11 13:03:00,81.2,63.7,29.84,SSW,200,6.2,8.1,55,0.00,,,0.00,WSDL version 430,2013-06-11 18:03:00,
2013-06-11 13:08:00,80.4,62.9,29.84,SSW,196,5.9,10.5,56,0.00,,,0.00,WSDL version 430,2013-06-11 18:08:00,
2013-06-11 13:13:00,79.6,63.3,29.84,SSW,200,5.5,10.5,60,0.00,,,0.00,WSDL version 430,2013-06-11 18:13:00,
2013-06-11 13:18:00,78.3,64.2,29.84,South,180,3.8,8.1,63,0.00,,,0.00,WSDL version 430,2013-06-11 18:18:00,
2013-06-11 13:23:00,77.4,64.5,29.83,SSW,196,3.4,6.0,65,0.00,,,0.00,WSDL version 430,2013-06-11 18:23:00,
2013-06-11 13:28:00,76.8,65.2,29.83,South,177,3.9,6.3,68,0.00,,,0.00,WSDL version 430,2013-06-11 18:28:00,
2013-06-11 13:33:00,76.6,65.6,29.82,SSE,166,4.2,7.4,70,0.00,,,0.00,WSDL version 430,2013-06-11 18:33:00,
2013-06-11 13:38:00,76.5,66.0,29.81,ENE,76,1.4,7.4,71,0.00,,,0.00,WSDL version 430,2013-06-11 18:38:00,
2013-06-11 13:43:00,76.4,66.3,29.80,ENE,68,0.4,4.7,71,0.00,,,0.00,WSDL version 430,2013-06-11 18:43:00,
2013-06-11 13:48:00,76.3,66.6,29.80,ENE,75,1.1,2.5,72,0.00,,,0.00,WSDL version 430,2013-06-11 18:48:00,
2013-06-11 13:53:00,76.3,66.8,29.80,NNE,25,0.0,2.5,73,0.00,,,0.00,WSDL version 430,2013-06-11 18:53:00,
2013-06-11 13:58:00,76.5,67.2,29.79,ENE,68,1.7,2.9,74,0.00,,,0.00,WSDL version 430,2013-06-11 18:58:00,
2013-06-11 14:03:00,76.5,67.6,29.79,East,82,1.0,2.9,74,0.00,,,0.00,WSDL version 430,2013-06-11 19:03:00,
2013-06-11 14:08:00,76.6,67.7,29.79,ENE,70,1.4,3.6,74,0.00,,,0.00,WSDL version 430,2013-06-11 19:08:00,
2013-06-11 14:13:00,76.6,68.0,29.79,North,350,1.6,3.6,75,0.00,,,0.00,WSDL version 430,2013-06-11 19:13:00,
2013-06-11 14:18:00,76.8,68.3,29.78,NE,55,1.4,3.1,75,0.00,,,0.00,WSDL version 430,2013-06-11 19:18:00,
2013-06-11 14:23:00,77.0,68.5,29.79,SSE,150,1.3,3.1,75,0.00,,,0.00,WSDL version 430,2013-06-11 19:23:00,
2013-06-11 14:29:00,77.4,68.8,29.78,ENE,68,2.2,3.4,75,0.00,,,0.00,WSDL version 430,2013-06-11 19:29:00,
2013-06-11 14:34:00,77.8,69.3,29.78,East,95,1.8,3.4,75,0.00,,,0.00,WSDL version 430,2013-06-11 19:34:00,
2013-06-11 14:39:00,78.1,69.5,29.78,ENE,70,1.5,4.0,75,0.00,,,0.00,WSDL version 430,2013-06-11 19:39:00,
2013-06-11 14:44:00,78.3,69.3,29.79,SE,124,2.7,4.7,74,0.00,,,0.00,WSDL version 430,2013-06-11 19:44:00,
2013-06-11 14:49:00,78.4,69.5,29.80,South,188,1.5,4.7,74,0.00,,,0.00,WSDL version 430,2013-06-11 19:49:00,
2013-06-11 14:54:00,78.7,69.9,29.79,South,185,4.1,6.0,74,0.00,,,0.00,WSDL version 430,2013-06-11 19:54:00,
2013-06-11 14:59:00,79.1,69.9,29.79,SSE,166,5.1,7.6,73,0.00,,,0.00,WSDL version 430,2013-06-11 19:59:00,
2013-06-11 15:04:00,79.2,69.5,29.79,SSE,168,3.9,8.5,72,0.00,,,0.00,WSDL version 430,2013-06-11 20:04:00,
2013-06-11 15:09:00,79.3,69.2,29.79,South,177,4.6,8.5,72,0.00,,,0.00,WSDL version 430,2013-06-11 20:09:00,
2013-06-11 15:14:00,79.5,69.5,29.79,South,177,5.3,8.7,72,0.00,,,0.00,WSDL version 430,2013-06-11 20:14:00,
2013-06-11 15:19:00,79.7,69.5,29.79,South,175,5.3,8.7,71,0.00,,,0.00,WSDL version 430,2013-06-11 20:19:00,
2013-06-11 15:24:00,79.9,69.6,29.79,South,191,4.3,7.6,71,0.00,,,0.00,WSDL version 430,2013-06-11 20:24:00,
2013-06-11 15:29:00,80.1,69.7,29.79,SSW,194,6.5,8.5,70,0.00,,,0.00,WSDL version 430,2013-06-11 20:29:00,
2013-06-11 15:34:00,80.3,69.4,29.78,SSE,164,5.5,8.5,69,0.00,,,0.00,WSDL version 430,2013-06-11 20:34:00,
2013-06-11 15:39:00,80.4,68.9,29.77,South,180,6.4,10.5,68,0.00,,,0.00,WSDL version 430,2013-06-11 20:39:00,
2013-06-11 15:44:00,80.6,69.1,29.77,South,173,5.2,10.5,68,0.00,,,0.00,WSDL version 430,2013-06-11 20:44:00,
2013-06-11 15:49:00,80.6,69.1,29.78,South,180,7.0,11.0,68,0.00,,,0.00,WSDL version 430,2013-06-11 20:49:00,
2013-06-11 15:54:00,80.7,69.4,29.78,South,172,6.5,11.0,69,0.00,,,0.00,WSDL version 430,2013-06-11 20:54:00,
2013-06-11 15:59:00,80.8,69.7,29.78,South,186,5.6,10.7,69,0.00,,,0.00,WSDL version 430,2013-06-11 20:59:00,
2013-06-11 16:04:00,81.1,69.9,29.78,South,169,6.5,11.0,68,0.00,,,0.00,WSDL version 430,2013-06-11 21:04:00,
2013-06-11 16:09:00,81.0,69.1,29.79,South,170,6.1,11.0,67,0.00,,,0.00,WSDL version 430,2013-06-11 21:09:00,
2013-06-11 16:14:00,80.9,68.9,29.78,South,174,5.2,10.1,67,0.00,,,0.00,WSDL version 430,2013-06-11 21:14:00,
2013-06-11 16:19:00,80.8,68.8,29.79,South,183,5.2,8.7,67,0.00,,,0.00,WSDL version 430,2013-06-11 21:19:00,
2013-06-11 16:24:00,80.8,69.0,29.78,South,183,4.5,8.7,67,0.00,,,0.00,WSDL version 430,2013-06-11 21:24:00,
2013-06-11 16:29:00,80.9,69.7,29.78,SSW,195,3.3,8.7,69,0.00,,,0.00,WSDL version 430,2013-06-11 21:29:00,
2013-06-11 16:34:00,81.1,70.0,29.78,South,183,5.5,10.1,69,0.00,,,0.00,WSDL version 430,2013-06-11 21:34:00,
2013-06-11 16:39:00,81.1,70.0,29.77,South,183,6.1,10.1,69,0.00,,,0.00,WSDL version 430,2013-06-11 21:39:00,
2013-06-11 16:44:00,81.1,70.1,29.77,SSW,199,3.5,9.8,69,0.00,,,0.00,WSDL version 430,2013-06-11 21:44:00,
2013-06-11 16:49:00,81.2,70.5,29.77,South,188,3.7,5.8,70,0.00,,,0.00,WSDL version 430,2013-06-11 21:49:00,
2013-06-11 16:54:00,81.3,70.5,29.77,SSE,168,2.4,5.6,69,0.00,,,0.00,WSDL version 430,2013-06-11 21:54:00,
2013-06-11 16:59:00,81.3,70.2,29.78,SSW,197,3.2,5.6,69,0.00,,,0.00,WSDL version 430,2013-06-11 21:59:00,
2013-06-11 17:04:00,81.1,70.0,29.77,SSW,198,3.0,5.6,69,0.00,,,0.00,WSDL version 430,2013-06-11 22:04:00,
2013-06-11 17:09:00,81.1,69.7,29.77,South,169,2.1,6.0,69,0.00,,,0.00,WSDL version 430,2013-06-11 22:09:00,
2013-06-11 17:14:00,81.2,70.0,29.77,South,183,3.7,8.1,69,0.00,,,0.00,WSDL version 430,2013-06-11 22:14:00,
2013-06-11 17:19:00,81.4,70.1,29.77,SW,219,3.6,8.5,69,0.00,,,0.00,WSDL version 430,2013-06-11 22:19:00,
2013-06-11 17:24:00,81.5,70.4,29.77,SSW,193,2.3,8.5,69,0.00,,,0.00,WSDL version 430,2013-06-11 22:24:00,
2013-06-11 17:29:00,81.5,69.9,29.76,SW,235,1.3,5.6,68,0.00,,,0.00,WSDL version 430,2013-06-11 22:29:00,
2013-06-11 17:34:00,81.6,70.4,29.76,SW,214,3.3,5.6,70,0.00,,,0.00,WSDL version 430,2013-06-11 22:34:00,
2013-06-11 17:39:00,81.7,70.6,29.76,SSE,163,3.7,6.0,69,0.00,,,0.00,WSDL version 430,2013-06-11 22:39:00,
2013-06-11 17:44:00,81.7,70.8,29.76,SSW,197,3.8,6.5,69,0.00,,,0.00,WSDL version 430,2013-06-11 22:44:00,
2013-06-11 17:49:00,81.7,70.8,29.77,SSE,167,2.1,6.5,69,0.00,,,0.00,WSDL version 430,2013-06-11 22:49:00,
2013-06-11 17:54:00,81.7,70.4,29.77,East,93,0.6,4.3,68,0.00,,,0.00,WSDL version 430,2013-06-11 22:54:00,
2013-06-11 17:59:00,81.5,69.9,29.78,South,180,0.4,4.3,68,0.00,,,0.00,WSDL version 430,2013-06-11 22:59:00,
2013-06-11 18:04:00,81.3,69.8,29.77,South,180,2.2,5.4,68,0.00,,,0.00,WSDL version 430,2013-06-11 23:04:00,
2013-06-11 18:09:00,81.5,70.4,29.77,SSW,208,1.3,5.4,69,0.00,,,0.00,WSDL version 430,2013-06-11 23:09:00,
2013-06-11 18:14:00,81.5,70.4,29.77,NNW,343,1.0,3.4,69,0.00,,,0.00,WSDL version 430,2013-06-11 23:14:00,
2013-06-11 18:19:00,81.5,70.4,29.76,South,191,1.8,3.4,69,0.00,,,0.00,WSDL version 430,2013-06-11 23:19:00,
2013-06-11 18:24:00,81.3,70.2,29.76,North,360,0.9,3.4,69,0.00,,,0.00,WSDL version 430,2013-06-11 23:24:00,
2013-06-11 18:29:00,81.3,70.2,29.76,NNE,19,2.1,2.7,69,0.00,,,0.00,WSDL version 430,2013-06-11 23:29:00,
2013-06-11 18:34:00,81.3,70.4,29.75,NE,50,0.6,2.7,69,0.00,,,0.00,WSDL version 430,2013-06-11 23:34:00,
2013-06-11 18:39:00,81.1,70.0,29.76,ENE,68,1.4,2.7,69,0.00,,,0.00,WSDL version 430,2013-06-11 23:39:00,
2013-06-11 18:44:00,81.0,70.0,29.75,ENE,70,1.1,2.9,70,0.00,,,0.00,WSDL version 430,2013-06-11 23:44:00,
2013-06-11 18:49:00,80.9,70.2,29.75,ENE,68,0.7,2.9,70,0.00,,,0.00,WSDL version 430,2013-06-11 23:49:00,
2013-06-11 18:54:00,80.8,70.1,29.75,ENE,73,0.6,2.9,70,0.00,,,0.00,WSDL version 430,2013-06-11 23:54:00,
2013-06-11 18:59:00,80.8,70.1,29.75,ENE,68,1.6,3.1,70,0.00,,,0.00,WSDL version 430,2013-06-11 23:59:00,
2013-06-11 19:04:00,80.6,69.9,29.75,East,90,0.0,3.1,70,0.00,,,0.00,WSDL version 430,2013-06-12 00:04:00,
2013-06-11 19:09:00,80.5,69.8,29.75,East,84,0.0,1.3,70,0.00,,,0.00,WSDL version 430,2013-06-12 00:09:00,
2013-06-11 19:14:00,80.4,69.7,29.75,ENE,65,0.1,2.5,70,0.00,,,0.00,WSDL version 430,2013-06-12 00:14:00,
2013-06-11 19:19:00,80.2,69.5,29.75,ENE,68,1.6,2.5,70,0.00,,,0.00,WSDL version 430,2013-06-12 00:19:00,
2013-06-11 19:24:00,80.1,69.4,29.75,ENE,68,1.7,2.7,70,0.00,,,0.00,WSDL version 430,2013-06-12 00:24:00,
2013-06-11 19:29:00,79.9,69.2,29.75,ENE,68,1.0,2.7,70,0.00,,,0.00,WSDL version 430,2013-06-12 00:29:00,
2013-06-11 19:34:00,79.7,69.1,29.75,ENE,68,0.0,2.5,70,0.00,,,0.00,WSDL version 430,2013-06-12 00:34:00,
2013-06-11 19:39:00,79.7,69.5,29.75,ENE,68,0.6,1.3,71,0.00,,,0.00,WSDL version 430,2013-06-12 00:39:00,
2013-06-11 19:44:00,79.6,69.4,29.75,ENE,68,0.0,1.3,71,0.00,,,0.00,WSDL version 430,2013-06-12 00:44:00,
2013-06-11 19:49:00,79.5,69.3,29.75,ENE,68,0.0,1.6,71,0.00,,,0.00,WSDL version 430,2013-06-12 00:49:00,
2013-06-11 19:54:00,79.3,69.1,29.75,ENE,68,0.0,1.6,71,0.00,,,0.00,WSDL version 430,2013-06-12 00:54:00,
2013-06-11 19:59:00,79.3,69.1,29.74,ENE,68,0.0,0.9,71,0.00,,,0.00,WSDL version 430,2013-06-12 00:59:00,
2013-06-11 20:04:00,79.0,69.2,29.74,ENE,68,0.0,0.0,72,0.00,,,0.00,WSDL version 430,2013-06-12 01:04:00,
2013-06-11 20:09:00,78.9,69.1,29.74,ENE,68,0.5,1.3,72,0.00,,,0.00,WSDL version 430,2013-06-12 01:09:00,
2013-06-11 20:14:00,78.8,69.0,29.74,ENE,68,0.0,1.3,72,0.00,,,0.00,WSDL version 430,2013-06-12 01:14:00,
2013-06-11 20:19:00,78.6,68.9,29.74,ENE,68,0.0,1.3,73,0.00,,,0.00,WSDL version 430,2013-06-12 01:19:00,
2013-06-11 20:24:00,78.4,68.7,29.74,ENE,68,0.5,2.5,72,0.00,,,0.00,WSDL version 430,2013-06-12 01:24:00,
2013-06-11 20:29:00,78.3,68.9,29.74,ENE,68,0.0,2.5,73,0.00,,,0.00,WSDL version 430,2013-06-12 01:29:00,
2013-06-11 20:34:00,78.2,68.9,29.74,ENE,68,0.0,0.0,73,0.00,,,0.00,WSDL version 430,2013-06-12 01:34:00,
2013-06-11 20:39:00,78.1,68.7,29.73,ENE,68,0.0,0.9,73,0.00,,,0.00,WSDL version 430,2013-06-12 01:39:00,
2013-06-11 20:44:00,77.9,68.5,29.74,ENE,68,0.0,0.9,73,0.00,,,0.00,WSDL version 430,2013-06-12 01:44:00,
2013-06-11 20:49:00,77.7,68.8,29.73,ENE,68,0.0,0.0,74,0.00,,,0.00,WSDL version 430,2013-06-12 01:49:00,
2013-06-11 20:54:00,77.5,68.6,29.74,South,178,0.0,0.0,74,0.00,,,0.00,WSDL version 430,2013-06-12 01:54:00,
2013-06-11 20:59:00,77.5,68.5,29.74,East,90,0.0,0.0,74,0.00,,,0.00,WSDL version 430,2013-06-12 01:59:00,
2013-06-11 21:04:00,77.3,68.4,29.74,East,90,0.0,0.0,75,0.00,,,0.00,WSDL version 430,2013-06-12 02:04:00,
2013-06-11 21:09:00,77.0,68.5,29.74,East,90,0.0,0.0,75,0.00,,,0.00,WSDL version 430,2013-06-12 02:09:00,
2013-06-11 21:14:00,76.7,68.2,29.74,East,90,0.0,0.0,75,0.00,,,0.00,WSDL version 430,2013-06-12 02:14:00,
2013-06-11 21:19:00,76.6,68.4,29.74,East,90,0.0,2.5,76,0.00,,,0.00,WSDL version 430,2013-06-12 02:19:00,
2013-06-11 21:24:00,76.3,68.2,29.75,South,180,0.0,2.5,76,0.00,,,0.00,WSDL version 430,2013-06-12 02:24:00,
2013-06-11 21:29:00,76.0,68.3,29.75,SSW,200,0.1,1.6,77,0.00,,,0.00,WSDL version 430,2013-06-12 02:29:00,
2013-06-11 21:34:00,75.8,68.4,29.76,SSW,203,0.0,1.6,78,0.00,,,0.00,WSDL version 430,2013-06-12 02:34:00,
2013-06-11 21:40:00,75.6,68.3,29.76,WSW,248,0.0,0.0,79,0.00,,,0.00,WSDL version 430,2013-06-12 02:40:00,
2013-06-11 21:45:00,75.4,68.4,29.76,South,188,0.8,2.7,79,0.00,,,0.00,WSDL version 430,2013-06-12 02:45:00,
2013-06-11 21:50:00,75.3,68.4,29.76,South,183,0.6,2.7,80,0.00,,,0.00,WSDL version 430,2013-06-12 02:50:00,
2013-06-11 21:55:00,75.2,68.6,29.77,SSW,194,1.2,2.0,80,0.00,,,0.00,WSDL version 430,2013-06-12 02:55:00,
2013-06-11 22:00:00,75.2,68.9,29.77,South,185,0.7,2.2,81,0.00,,,0.00,WSDL version 430,2013-06-12 03:00:00,
2013-06-11 22:05:00,75.2,68.9,29.77,SSE,158,0.0,2.2,81,0.00,,,0.00,WSDL version 430,2013-06-12 03:05:00,
2013-06-11 22:10:00,75.1,69.0,29.77,SSW,197,0.7,2.0,82,0.00,,,0.00,WSDL version 430,2013-06-12 03:10:00,
2013-06-11 22:15:00,75.0,69.2,29.77,SSW,208,1.5,2.7,82,0.00,,,0.00,WSDL version 430,2013-06-12 03:15:00,
2013-06-11 22:20:00,75.0,69.5,29.77,SSW,197,1.6,2.7,83,0.00,,,0.00,WSDL version 430,2013-06-12 03:20:00,
2013-06-11 22:25:00,75.1,69.5,29.77,SSW,203,2.0,3.8,83,0.00,,,0.00,WSDL version 430,2013-06-12 03:25:00,
2013-06-11 22:30:00,75.0,69.5,29.77,SSW,212,2.0,3.8,83,0.00,,,0.00,WSDL version 430,2013-06-12 03:30:00,
2013-06-11 22:35:00,75.0,69.5,29.78,SW,220,1.1,2.9,83,0.00,,,0.00,WSDL version 430,2013-06-12 03:35:00,
2013-06-11 22:40:00,75.0,69.9,29.77,SSW,205,0.0,2.5,84,0.00,,,0.00,WSDL version 430,2013-06-12 03:40:00,
2013-06-11 22:45:00,75.0,69.8,29.77,South,186,0.8,2.5,84,0.00,,,0.00,WSDL version 430,2013-06-12 03:45:00,
2013-06-11 22:50:00,74.8,69.7,29.77,SSW,197,1.8,2.5,84,0.00,,,0.00,WSDL version 430,2013-06-12 03:50:00,
2013-06-11 22:55:00,74.7,69.5,29.77,South,180,2.0,2.7,84,0.00,,,0.00,WSDL version 430,2013-06-12 03:55:00,
2013-06-11 23:00:00,74.7,69.5,29.77,SSW,203,2.0,3.1,84,0.00,,,0.00,WSDL version 430,2013-06-12 04:00:00,
2013-06-11 23:01:00,74.7,69.5,29.77,SSW,198,1.9,3.1,84,0.00,,,0.00,WSDL version 430,2013-06-12 04:01:00,
2013-06-11 23:02:00,74.7,69.5,29.77,SSW,197,1.6,3.1,84,0.00,,,0.00,WSDL version 430,2013-06-12 04:02:00,
2013-06-11 23:04:00,74.6,69.5,29.77,SSW,193,1.8,3.1,84,0.00,,,0.00,WSDL version 430,2013-06-12 04:04:00,
2013-06-11 23:05:00,74.6,69.4,29.77,South,191,2.0,3.1,84,0.00,,,0.00,WSDL version 430,2013-06-12 04:05:00,
2013-06-11 23:10:00,74.5,69.3,29.77,SSW,199,2.1,2.9,84,0.00,,,0.00,WSDL version 430,2013-06-12 04:10:00,
2013-06-11 23:15:00,74.4,69.5,29.77,SSW,194,2.3,3.8,85,0.00,,,0.00,WSDL version 430,2013-06-12 04:15:00,
2013-06-11 23:20:00,74.3,69.5,29.77,SSW,197,1.8,3.8,85,0.00,,,0.00,WSDL version 430,2013-06-12 04:20:00,
2013-06-11 23:25:00,74.3,69.5,29.76,South,185,2.1,3.8,85,0.00,,,0.00,WSDL version 430,2013-06-12 04:25:00,
2013-06-11 23:27:00,74.3,69.5,29.76,South,186,3.1,3.8,85,0.00,,,0.00,WSDL version 430,2013-06-12 04:27:00,
2013-06-11 23:32:00,74.2,69.4,29.76,South,185,2.6,4.0,85,0.00,,,0.00,WSDL version 430,2013-06-12 04:32:00,
2013-06-11 23:37:00,74.2,69.4,29.76,SSW,203,2.5,4.0,85,0.00,,,0.00,WSDL version 430,2013-06-12 04:37:00,
2013-06-11 23:42:00,74.3,69.5,29.77,SSW,205,2.5,4.0,85,0.00,,,0.00,WSDL version 430,2013-06-12 04:42:00,
2013-06-11 23:47:00,74.3,69.5,29.77,SSW,197,1.9,3.6,85,0.00,,,0.00,WSDL version 430,2013-06-12 04:47:00,
2013-06-11 23:52:00,74.3,69.5,29.77,SW,215,0.5,2.9,85,0.00,,,0.00,WSDL version 430,2013-06-12 04:52:00,
2013-06-11 23:57:00,74.2,69.4,29.78,SW,218,0.1,2.7,85,0.00,,,0.00,WSDL version 430,2013-06-12 04:57:00,